RCM-3 (44323 NORAD) Tracking and Keplerian Element Data

This shows tracking and keplerian element data for the satellite.

Feedback or suggestion? Click here.




ElementValue
Catalog44323
NameRCM-3
Epoch Orbit415
Epoch Day191.48327404
Epoch Year2019
RAAN198.1996
Inclination97.7638
Eccentricity0.0014993
Argument of Perigee157.9191
Mean Anonmoly202.4046
Mean Motion14.91435798
Decay Rate5.279E-05
L11 44323U 19033B 19191.48327404 .00005279 00000-0 53252-3 0 9998
L22 44323 97.7638 198.1996 0014993 157.9191 202.4046 14.91435798 4159

Live tracking and technical data element details for RCM-3 (NORAD 44323). RCM-3 can be tracked NOW for your location showing map with azimuth and elevation plus other details from your city location.

Track the satellite on the map from your city or location and see movement details for azimuth, elevation, latitude, longitude, range, height, and movement on the map or in text.







IsCatalogInMostPopularTable: catalog: 44323, numindb: 8
Update: records affected: 1



GetName: 44323 RCM-3

Hit Count: updated at: Sat, 20 Jul 2019 23:03:47 GMT